Tracking 19477 objects as of 16-Jan-2019
HD Live streaming from Space Station
objects crossing your sky now

COSMOS 2241

Track COSMOS 2241 now!
10-day predictions
COSMOS 2241 is classified as:


NORAD ID: 22594
Int'l Code: 1993-022A
Perigee: 211.5 km
Apogee: 13,721.7 km
Inclination: 61.5 °
Period: 255.5 minutes
Semi major axis: 13337 km
RCS: 11.169 m2 (large)
Launch date: April 6, 1993
Source: Commonwealth of Independent States (former USSR) (CIS)
Launch site: PLESETSK MISSILE AND SPACE COMPLEX (PKMTR)
aabbcc
Your satellite tracking list
Your tracking list is empty




NASA's NSSDC Master Catalog

Two Line Element Set (TLE):
1 22594U 93022A   19015.59853060 +.00009832 +00000-0 +21029-3 0  9999
2 22594 061.4755 143.4344 5064688 025.5166 352.5996 05.63621056237765
Source of the keplerian elements: AFSPC